EW9093 Weather Reports


Display with metric or nautical units.
time (UTC)temp
F
wind
direction
speed
MPH
gust
MPH
rain 1hr
in
rain 24hr
in
rain mn
in
humidity
%
barometer
mb
20260507104806 55 82 3.0 7.0 0.00 0.00 0.00 76 1017.3
20260507101805 54 99 4.0 8.0 0.00 0.00 0.00 74 1017.5
20260507101305 54 110 2.0 7.0 0.00 0.00 0.00 75 1017.5
20260507094806 55 97 2.0 5.0 0.00 0.00 0.00 76 1017.4
20260507093805 54 85 3.0 5.0 0.00 0.00 0.00 74 1017.5
20260507092805 55 64 1.0 3.0 0.00 0.00 0.00 76 1017.4
20260507092307 55 149 2.0 5.0 0.00 0.00 0.00 75 1017.3
20260507091305 56 97 5.0 8.0 0.00 0.00 0.00 73 1017.4
20260507090805 56 76 3.0 5.0 0.00 0.00 0.00 75 1017.4
20260507090305 53 41 2.0 3.0 0.00 0.00 0.00 79 1017.4
20260507085807 53 74 2.0 3.0 0.00 0.00 0.00 79 1017.4
20260507083806 53 124 2.0 5.0 0.00 0.00 0.00 76 1017.4
20260507083305 53 353 1.0 2.0 0.00 0.00 0.00 80 1017.5
20260507082805 53 89 2.0 3.0 0.00 0.00 0.00 81 1017.5
20260507081805 51 80 2.0 3.0 0.00 0.00 0.00 81 1017.5
20260507080805 51 94 2.0 3.0 0.00 0.00 0.00 82 1017.5
20260507074805 51 123 5.0 7.0 0.00 0.00 0.00 84 1017.4
20260507070805 47 105 2.0 3.0 0.00 0.00 0.00 94 1017.3
20260507065805 47 111 2.0 3.0 0.00 0.00 0.00 95 1017.2
20260507065306 46 118 2.0 3.0 0.00 0.00 0.00 96 1017.2
20260507064805 46 69 1.0 2.0 0.00 0.00 0.00 96 1017.2
20260507063805 46 6 1.0 1.0 0.00 0.00 0.00 97 1017.1
20260507062306 45 339 0.0 0.0 0.00 0.00 0.00 97 1017.1
20260507061804 45 339 0.0 0.0 0.00 0.00 0.00 97 1017.2
20260507061304 44 339 0.0 0.0 0.00 0.00 0.00 97 1017.1
20260507060305 44 339 0.0 1.0 0.00 0.00 0.00 97 1017.0
20260507055306 43 339 0.0 2.0 0.00 0.00 0.00 97 1016.9
20260507054805 43 339 0.0 0.0 0.00 0.00 0.00 97 1016.7
20260507053305 42 28 0.0 0.0 0.00 0.00 0.00 97 1016.7
20260507052306 42 28 0.0 0.0 0.00 0.00 0.00 96 1016.6
20260507051805 42 28 0.0 0.0 0.00 0.00 0.00 96 1016.6
20260507045306 42 28 0.0 0.0 0.00 0.00 0.00 96 1016.5
20260507043805 42 28 0.0 1.0 0.00 0.00 0.00 96 1016.4
20260507043305 42 28 0.0 2.0 0.00 0.00 0.00 96 1016.4
20260507041305 42 28 1.0 2.0 0.00 0.00 0.00 96 1016.2
20260507040805 42 28 0.0 2.0 0.00 0.00 0.00 96 1016.2
20260507040305 42 28 0.0 0.0 0.00 0.00 0.00 96 1016.2
20260507034305 43 28 0.0 0.0 0.00 0.00 0.00 96 1016.1
20260507033805 44 28 0.0 2.0 0.00 0.00 0.00 96 1016.1
20260507033305 44 28 1.0 1.0 0.00 0.00 0.00 96 1016.0
20260507032306 44 28 0.0 2.0 0.00 0.00 0.00 96 1016.1
20260507031804 45 28 0.0 2.0 0.00 0.00 0.00 96 1016.1
20260507025805 45 28 0.0 0.0 0.00 0.00 0.00 96 1016.0
20260507024805 45 28 0.0 0.0 0.00 0.00 0.00 96 1016.2
20260507023805 45 28 0.0 0.0 0.00 0.00 0.00 96 1016.2
20260507023304 45 28 0.0 0.0 0.00 0.00 0.00 96 1016.1
20260507022805 46 28 0.0 0.0 0.00 0.00 0.00 96 1016.1
20260507022306 46 28 0.0 2.0 0.00 0.00 0.00 96 1016.2
20260507015804 46 28 0.0 2.0 0.00 0.00 0.00 95 1016.1
20260507015306 46 28 0.0 2.0 0.00 0.00 0.00 95 1016.0
20260507014305 46 28 1.0 2.0 0.00 0.00 0.00 95 1016.0
20260507013804 46 28 1.0 2.0 0.00 0.00 0.00 95 1016.0
20260507011805 46 28 1.0 2.0 0.00 0.00 0.00 95 1015.9
20260507010805 46 28 1.0 2.0 0.00 0.00 0.00 95 1016.0
20260507005805 46 28 1.0 2.0 0.00 0.00 0.00 95 1016.0
20260507004804 46 28 0.0 2.0 0.00 0.00 0.00 95 1016.0
20260507004304 46 28 0.0 2.0 0.00 0.00 0.00 95 1016.0
20260507003805 46 28 0.0 2.0 0.00 0.00 0.00 95 1016.0
20260507002804 46 28 0.0 2.0 0.00 0.00 0.00 95 1016.0
20260507001821 46 28 0.0 1.0 0.00 0.00 0.00 95 1016.0
20260507001311 46 28 0.0 2.0 0.00 0.00 0.00 95 1016.0
20260507000306 46 28 1.0 2.0 0.00 0.00 0.00 95 1016.1
20260506235307 46 34 1.0 2.0 0.00 0.00 0.00 95 1016.1
20260506234805 46 52 1.0 3.0 0.00 0.00 0.00 95 1016.1
20260506234304 46 34 1.0 2.0 0.00 0.00 0.00 95 1016.2
20260506233805 46 35 1.0 2.0 0.00 0.00 0.00 95 1016.2
20260506233305 46 46 1.0 2.0 0.00 0.00 0.00 95 1016.1
20260506232804 46 46 1.0 2.0 0.00 0.00 0.00 95 1016.1
20260506232306 46 46 1.0 2.0 0.00 0.00 0.00 95 1016.1
20260506231804 46 46 1.0 2.0 0.00 0.00 0.00 95 1016.1
20260506231305 46 46 1.0 2.0 0.00 0.00 0.00 95 1016.0
20260506230824 46 46 1.0 2.0 0.00 0.00 0.00 95 1016.0
20260506225306 46 44 1.0 5.0 0.00 0.00 0.00 95 1016.0
20260506224805 46 67 2.0 5.0 0.00 0.00 0.00 95 1016.0
20260506223804 47 50 2.0 5.0 0.00 0.00 0.00 95 1016.0
20260506223304 47 46 2.0 3.0 0.00 0.00 0.00 95 1016.0
20260506222306 47 44 1.0 3.0 0.00 0.00 0.00 94 1015.9
20260506221805 47 34 2.0 2.0 0.00 0.00 0.00 94 1015.9
20260506220805 47 34 1.0 3.0 0.00 0.00 0.00 94 1016.0
20260506220304 47 20 1.0 2.0 0.00 0.00 0.00 94 1016.0
20260506214804 47 37 1.0 3.0 0.00 0.00 0.00 94 1015.8
20260506214304 47 35 1.0 3.0 0.00 0.00 0.00 94 1015.8
20260506212306 47 37 2.0 5.0 0.00 0.00 0.00 94 1015.6
20260506211804 47 49 1.0 6.0 0.00 0.00 0.00 94 1015.6
20260506210305 48 31 2.0 6.0 0.00 0.00 0.00 94 1015.4
20260506205306 48 48 2.0 5.0 0.00 0.00 0.00 94 1015.4
20260506204804 48 60 2.0 6.0 0.00 0.00 0.00 94 1015.4
20260506203804 48 40 2.0 7.0 0.00 0.00 0.00 94 1015.4
20260506195306 48 47 3.0 8.0 0.00 0.00 0.00 93 1015.2
20260506194804 49 68 2.0 8.0 0.00 0.00 0.00 93 1015.1
20260506193805 49 66 3.0 9.0 0.00 0.00 0.00 93 1015.0
20260506192806 49 46 5.0 10.0 0.00 0.00 0.00 93 1015.0
20260506185307 49 47 3.0 7.0 0.00 0.00 0.00 94 1014.7
20260506184804 49 40 2.0 7.0 0.00 0.00 0.00 93 1014.7
20260506184304 49 42 4.0 8.0 0.00 0.00 0.00 93 1014.7
20260506183805 50 50 3.0 6.0 0.00 0.00 0.00 93 1014.7
20260506182805 50 39 2.0 7.0 0.00 0.00 0.00 93 1014.7
20260506182306 50 30 2.0 6.0 0.00 0.00 0.00 92 1014.5
20260506181805 50 35 2.0 6.0 0.00 0.00 0.00 92 1014.5
20260506180304 51 48 2.0 8.0 0.00 0.00 0.00 92 1014.3
20260506175804 51 44 4.0 8.0 0.00 0.00 0.00 91 1014.2
20260506175306 51 48 4.0 8.0 0.00 0.00 0.00 90 1014.1
20260506174804 52 4 3.0 6.0 0.00 0.00 0.00 90 1014.1
20260506173805 52 355 2.0 6.0 0.00 0.00 0.00 89 1014.0
20260506171304 52 345 3.0 8.0 0.00 0.00 0.00 86 1014.0
20260506170304 52 14 2.0 5.0 0.00 0.00 0.00 85 1014.0
20260506165804 52 23 3.0 6.0 0.00 0.00 0.00 85 1014.0
20260506164804 52 1 2.0 7.0 0.00 0.00 0.00 85 1013.9
20260506163805 52 45 2.0 6.0 0.00 0.00 0.00 84 1014.0
20260506162804 52 38 3.0 10.0 0.00 0.00 0.00 82 1014.0
20260506161804 52 40 3.0 7.0 0.00 0.00 0.00 83 1014.0
20260506161304 51 67 4.0 9.0 0.00 0.00 0.00 82 1014.0
20260506160804 52 26 4.0 8.0 0.00 0.00 0.00 85 1014.1
20260506160305 52 12 3.0 8.0 0.00 0.00 0.00 86 1014.0
20260506155804 52 353 3.0 7.0 0.00 0.00 0.00 86 1014.0
20260506154304 52 5 4.0 7.0 0.00 0.00 0.00 86 1014.0
20260506153304 52 21 2.0 6.0 0.00 0.00 0.00 86 1014.0
20260506152804 52 47 3.0 7.0 0.00 0.00 0.00 86 1014.0
20260506152306 52 34 4.0 7.0 0.00 0.00 0.00 86 1013.9
20260506151304 53 19 3.0 8.0 0.00 0.00 0.00 84 1013.9
20260506150804 53 22 3.0 8.0 0.00 0.00 0.00 84 1013.9
20260506150305 53 30 4.0 9.0 0.00 0.00 0.00 83 1013.8
20260506145803 53 30 2.0 9.0 0.00 0.00 0.00 84 1013.8
20260506145306 53 352 6.0 12.0 0.00 0.00 0.00 83 1013.8
20260506142306 53 356 4.0 10.0 0.00 0.00 0.00 81 1013.8
20260506141303 53 21 6.0 12.0 0.00 0.00 0.00 81 1013.8
20260506135804 53 15 5.0 14.0 0.00 0.00 0.00 82 1013.9
20260506134804 53 34 6.0 12.0 0.00 0.00 0.00 84 1013.9
20260506134304 53 332 5.0 10.0 0.00 0.00 0.00 83 1014.0
20260506133803 53 354 6.0 13.0 0.00 0.00 0.00 83 1014.0
20260506133303 53 16 6.0 14.0 0.00 0.00 0.00 83 1014.0
20260506132804 52 332 7.0 16.0 0.00 0.00 0.00 83 1013.9
20260506131804 53 347 7.0 17.0 0.00 0.00 0.00 80 1014.0
20260506130304 52 349 8.0 17.0 0.00 0.00 0.00 83 1013.9
20260506125803 52 336 7.0 16.0 0.00 0.00 0.00 82 1013.8
20260506124804 53 335 9.0 16.0 0.00 0.00 0.00 79 1013.8
20260506124304 53 347 9.0 18.0 0.00 0.00 0.00 75 1013.8
20260506123805 53 346 8.0 15.0 0.00 0.00 0.00 75 1013.8
20260506123304 53 354 3.0 14.0 0.00 0.00 0.00 73 1013.7
20260506121804 53 12 6.0 15.0 0.00 0.00 0.00 75 1013.6
20260506120804 54 5 7.0 15.0 0.00 0.00 0.00 76 1013.5
20260506114803 54 349 5.0 13.0 0.00 0.00 0.00 74 1013.4
20260506114304 54 16 7.0 17.0 0.00 0.00 0.00 75 1013.4
20260506113804 54 42 7.0 17.0 0.00 0.00 0.00 72 1013.4
20260506112804 55 28 9.0 18.0 0.00 0.00 0.00 72 1013.4
20260506112306 55 42 9.0 18.0 0.00 0.00 0.00 72 1013.3
20260506111805 56 16 5.0 14.0 0.00 0.00 0.00 72 1013.3
20260506111305 56 30 7.0 13.0 0.00 0.00 0.00 70 1013.3
20260506110805 56 11 7.0 17.0 0.00 0.00 0.00 70 1013.4
20260506110305 56 5 10.0 21.0 0.00 0.00 0.00 69 1013.3